Quick links : Home Page : Contact Us : Index : Site Map : Search Site : Ephemerides


(163902) 2003 SW222

Orbital Elements

The following orbital elements are taken from MPO123587
(163902) 2003 SW222
Epoch 2007 Oct. 27.0 TT = JDT 2454400.5                 MPC
M 306.13284              (2000.0)            P               Q
n   0.46054299     Peri.  164.88920     +0.01295830     -0.96290862
a   1.6606927      Node   283.79844     +0.88622253     +0.13588805
e   0.2482514      Incl.   16.11258     +0.46307851     -0.23311250
P   2.14           H   17.2           G   0.15           U   1
From 516 observations at 3 oppositions, 2003-2007, mean residual 0".41.
An explanation of the orbital elements is available.

These orbital elements are also available in forms suitable for loading into a number of popular planetarium-type software programs.


Ephemeris

The following ephemeris is at intervals of five days. A daily ephemeris covering the same time interval is also available.

Personalized ephemerides for this (and other) objects may be generated using the Minor Planet & Comet Ephemeris Service.

Date    TT    R. A. (2000) Decl.     Delta      r     Elong.  Phase     V
2008 07 13    10 10.27   -01 15.9    2.128    1.588    45.4    27.1    21.1
 
2009 05 19    21 10.71   -15 11.0    1.566    2.040   102.5    29.0    21.0
2009 05 24    21 13.96   -14 18.9    1.503    2.034   106.3    28.5    20.9
2009 05 29    21 16.52   -13 26.6    1.441    2.028   110.2    28.0    20.8
2009 06 03    21 18.33   -12 34.2    1.381    2.022   114.3    27.2    20.6
2009 06 08    21 19.33   -11 42.0    1.322    2.015   118.6    26.2    20.5
2009 06 13    21 19.47   -10 49.9    1.266    2.008   123.0    25.1    20.4
2009 06 18    21 18.68   -09 58.4    1.211    2.001   127.6    23.7    20.2
2009 06 23    21 16.91   -09 07.7    1.160    1.993   132.4    22.1    20.1
2009 06 28    21 14.10   -08 18.0    1.113    1.984   137.4    20.3    19.9
2009 07 03    21 10.26   -07 29.9    1.069    1.976   142.6    18.2    19.8
2009 07 08    21 05.39   -06 43.6    1.030    1.966   147.8    16.0    19.6
2009 07 13    20 59.53   -05 59.8    0.996    1.957   153.0    13.6    19.4
2009 07 18    20 52.79   -05 18.9    0.967    1.947   158.0    11.3    19.3
2009 07 23    20 45.29   -04 41.7    0.944    1.936   162.3     9.2    19.1
2009 07 28    20 37.27   -04 08.7    0.927    1.926   165.0     7.9    19.0
2009 08 02    20 28.97   -03 40.2    0.916    1.915   165.1     7.9    19.0
2009 08 07    20 20.66   -03 16.5    0.912    1.903   162.4     9.3    19.0
2009 08 12    20 12.64   -02 57.8    0.913    1.891   158.1    11.5    19.1
2009 08 17    20 05.15   -02 43.9    0.920    1.879   152.9    14.2    19.2

Back to Observable Critical-List Minor Planets

MPC

Valid HTML 4.01!